Погода в Петровском

Россия / Тамбовская область     52°37′55″N   40°15′16″E
темп.,
°C
ветер,
м/с
пор.,
м/с
влажн.,
%
обл.,
%
осадки,
мм/ч
давл.,
гПа
погр.,
м
26 июля, пн
пн2600:00+16юв226321 0.0 102228
03:00+15ююв11675 0.0 102311
06:00+16ю11650 0.0 102425
09:00+23ююв11464 0.0 1023498
12:00+26ю123465 0.0 10232203
15:00+26зюз1234100 0.0 10222352
18:00+26ю113738 0.0 1022935
21:00+22ююз224799 0.0 102218
27 июля, вт
вт2700:00+20зюз225343 0.0 102227
03:00+19з225574 0.0 102229
06:00+19зюз1166100 0.1 102216
09:00+23зсз125238 0.1 1022376
12:00+28з23365 0.0 10212216
15:00+27сз234213 0.0 1019724
18:00+26ссв234899 0.1 1019211
21:00+19юв00714 0.3 101911
28 июля, ср
ср2800:00+18с11766 0.3 101911
03:00+17з01806 1.2 101811
06:00+18з11805 0.0 101817
09:00+24зсз015779 0.0 1017379
12:00+29юз233815 0.0 10161995
15:00+29юз3435100 0.0 10142272
18:00+22сз61158100 0.1 1015521
21:00+20в4767100 0.2 1013185
29 июля, чт
чт2900:00+20юв376869 0.0 1012197
03:00+18ююз388018 0.1 1011159
06:00+19юз37767 0.0 1010188
09:00+24зюз56600 0.0 1009685
12:00+29з68425 0.0 10081898
15:00+31зсз79338 0.0 10072776
18:00+29сз5838100 0.0 10071151
21:00+22ссз225815 0.0 100814
30 июля, пт
пт3000:00+22юв2262100 0.0 100827
03:00+21зюз236698 0.1 100761
06:00+20зюз1182100 0.6 100825
09:00+20ююз1283100 1.4 100899
12:00+26ю32555 0.0 10081100
15:00+29ююз234690 0.0 10071931
18:00+26с226187 0.1 100753
21:00+24з226499 0.1 100833